Погода в Лимбажи

Латвия     57°30′36″N   24°42′49″E
темп.,
°C
ветер,
м/с
пор.,
м/с
влажн.,
%
обл.,
%
осадки,
мм/ч
давл.,
гПа
погр.,
м
4 июля, пн
пн400:00+14с22840 0.0 101931
03:00+12св22900 0.0 101921
06:00+13всв23880 0.0 101973
09:00+20вюв22620 0.0 1018458
12:00+24ююз234399 0.0 10161516
15:00+21юз125942 0.0 1016299
18:00+24зюз234798 0.0 10141253
21:00+20с1171100 0.0 101311
5 июля, вт
вт500:00+17ююз11786 0.0 101311
03:00+15ююз22940 0.0 101335
06:00+16юз25912 0.0 1013130
09:00+20зюз47624 0.0 1014725
12:00+22з46530 0.0 10151442
15:00+23з48445 0.0 10151942
18:00+21зсз46520 0.0 10151135
21:00+16сз12770 0.0 101545
6 июля, ср
ср600:00+12ююз11930 0.0 101610
03:00+11ю229779 0.0 101631
06:00+12ююз279695 0.0 1015261
09:00+17юз4772100 0.0 1015797
12:00+20зюз5753100 0.1 10141566
15:00+22зюз584441 0.1 10122089
18:00+20з474937 0.0 10121507
21:00+15з26845 0.3 1012219
7 июля, чт
чт700:00+11юз249611 0.1 101371
03:00+10ю279863 0.3 1013152
06:00+10ю279927 0.1 1012209
09:00+15ююз367925 0.1 1013459
12:00+20зюз564996 0.0 10131533
15:00+22юз464271 0.0 10122085
18:00+18юз3778100 0.7 1013670
21:00+15ююз3892100 1.4 1013317
8 июля, пт
пт800:00+13ю2898100 0.1 1014215
03:00+13ююз3995100 0.2 1014483
06:00+13ююз41099100 1.5 1014530
09:00+15з269675 2.2 1015510
12:00+18сз356254 0.3 10161244
15:00+20зсз55432 0.3 10161554
18:00+19зсз45535 0.0 10171465
21:00+15сз377399 0.0 1018516